Simultaneous Nadir Overpasses (SNOs) Predictions

Prediction of SNOs between GOES-16 and METOP-B Satellite Orbit:

Table of predicted SNOs for the next 14.0 days since TLE Epoch: 10/3/2020
Index Date Time (GOES-16) GOES-16 Lat,Lon METOP-B Lat,Lon Distance(km) Time Diff (sec)
1 10/03/2020 02:22:32 0.04, -75.20 0.40, -73.55 187.95 80
2 10/04/2020 14:44:05 -0.03, -75.24 0.61, -78.11 326.83 80
3 10/05/2020 14:20:46 -0.03, -75.25 -0.52, -73.12 243.76 80
4 10/07/2020 02:42:27 0.03, -75.25 -0.52, -77.71 279.98 80
5 10/08/2020 02:19:09 0.03, -75.27 0.62, -72.72 290.73 80
6 10/09/2020 14:40:41 -0.02, -75.32 0.39, -77.28 223.70 80
7 10/10/2020 14:17:22 -0.03, -75.33 -0.68, -72.28 347.20 80
8 10/12/2020 02:39:03 0.02, -75.34 -0.35, -76.88 175.97 80
9 10/13/2020 02:15:45 0.02, -75.36 0.79, -71.89 395.16 80
10 10/14/2020 14:37:17 -0.02, -75.41 0.23, -76.45 118.53 80
11 10/15/2020 14:13:58 -0.03, -75.44 -0.91, -71.46 453.00 80
